Time,TemperatureF,DewpointF,PressureIn,WindDirection,WindDirectionDegrees,WindSpeedMPH,WindSpeedGustMPH,Humidity,HourlyPrecipIn,Conditions,Clouds,dailyrainin,SolarRadiationWatts/m^2,SoftwareType,DateUTC
2013-03-02 00:12:00,31.0,24.0,-100.00,NNE,27,7.0,13.0,76,0.00,,,0.01,0.000000,,2013-03-02 05:12:00,
2013-03-02 00:23:00,31.0,24.0,-100.00,NNE,27,7.0,13.0,76,0.00,,,0.01,0.000000,,2013-03-02 05:23:00,
2013-03-02 00:32:00,31.0,24.0,-100.00,NNE,27,7.0,13.0,76,0.00,,,0.01,0.000000,,2013-03-02 05:32:00,
2013-03-02 00:42:00,31.0,24.0,-100.00,NNE,27,7.0,13.0,76,0.00,,,0.01,0.000000,,2013-03-02 05:42:00,
2013-03-02 01:11:00,30.0,22.0,-100.00,NNE,14,7.0,20.0,72,0.00,,,0.01,0.000000,,2013-03-02 06:11:00,
2013-03-02 01:22:00,30.0,22.0,-100.00,NNE,14,7.0,20.0,72,0.00,,,0.01,0.000000,,2013-03-02 06:22:00,
2013-03-02 01:32:00,30.0,22.0,-100.00,NNE,14,7.0,20.0,72,0.00,,,0.01,0.000000,,2013-03-02 06:32:00,
2013-03-02 01:42:00,30.0,22.0,-100.00,NNE,14,7.0,20.0,72,0.00,,,0.01,0.000000,,2013-03-02 06:42:00,
2013-03-02 02:02:00,29.0,21.0,-100.00,NNE,32,7.0,15.0,72,0.00,,,0.01,0.000000,,2013-03-02 07:02:00,
2013-03-02 02:11:00,29.0,21.0,-100.00,NNE,32,7.0,15.0,72,0.00,,,0.01,0.000000,,2013-03-02 07:11:00,
2013-03-02 02:22:00,29.0,21.0,-100.00,NNE,32,7.0,15.0,72,0.00,,,0.01,0.000000,,2013-03-02 07:22:00,
2013-03-02 02:32:00,29.0,21.0,-100.00,NNE,32,7.0,15.0,72,0.00,,,0.01,0.000000,,2013-03-02 07:32:00,
2013-03-02 02:42:00,29.0,21.0,-100.00,NNE,32,7.0,15.0,72,0.00,,,0.01,0.000000,,2013-03-02 07:42:00,
2013-03-02 03:01:00,28.0,20.0,-100.00,NNE,26,9.0,20.0,73,0.00,,,0.01,0.000000,,2013-03-02 08:01:00,
2013-03-02 03:11:00,28.0,20.0,-100.00,NNE,26,9.0,20.0,73,0.00,,,0.01,0.000000,,2013-03-02 08:11:00,
2013-03-02 03:22:00,28.0,20.0,-100.00,NNE,26,9.0,20.0,73,0.00,,,0.01,0.000000,,2013-03-02 08:22:00,
2013-03-02 03:32:00,28.0,20.0,-100.00,NNE,26,9.0,20.0,73,0.00,,,0.01,0.000000,,2013-03-02 08:32:00,
2013-03-02 03:42:00,28.0,20.0,-100.00,NNE,26,9.0,20.0,73,0.00,,,0.01,0.000000,,2013-03-02 08:42:00,
2013-03-02 04:11:00,28.0,20.0,-100.00,NNE,22,10.0,18.0,73,0.00,,,0.01,0.000000,,2013-03-02 09:11:00,
2013-03-02 04:22:00,28.0,20.0,-100.00,NNE,22,10.0,18.0,73,0.00,,,0.01,0.000000,,2013-03-02 09:22:00,
2013-03-02 04:32:00,28.0,20.0,-100.00,NNE,22,10.0,18.0,73,0.00,,,0.01,0.000000,,2013-03-02 09:32:00,
2013-03-02 04:42:00,28.0,20.0,-100.00,NNE,22,10.0,18.0,73,0.00,,,0.01,0.000000,,2013-03-02 09:42:00,
2013-03-02 05:16:00,27.0,20.0,-100.00,North,11,7.0,16.0,74,0.00,,,0.01,0.000000,,2013-03-02 10:16:00,
2013-03-02 05:22:00,27.0,20.0,-100.00,North,11,7.0,16.0,74,0.00,,,0.01,0.000000,,2013-03-02 10:22:00,
2013-03-02 05:32:00,27.0,20.0,-100.00,North,11,7.0,16.0,74,0.00,,,0.01,0.000000,,2013-03-02 10:32:00,
2013-03-02 05:43:00,27.0,20.0,-100.00,North,11,7.0,16.0,74,0.00,,,0.01,0.000000,,2013-03-02 10:43:00,
2013-03-02 06:11:00,27.0,20.0,-100.00,NNE,28,7.0,29.0,74,0.00,,,0.01,0.000000,,2013-03-02 11:11:00,
2013-03-02 06:22:00,27.0,20.0,-100.00,NNE,28,7.0,29.0,74,0.00,,,0.01,0.000000,,2013-03-02 11:22:00,
2013-03-02 06:32:00,27.0,20.0,-100.00,NNE,28,7.0,29.0,74,0.00,,,0.01,0.000000,,2013-03-02 11:32:00,
2013-03-02 06:42:00,27.0,20.0,-100.00,NNE,28,7.0,29.0,74,0.00,,,0.01,0.000000,,2013-03-02 11:42:00,
2013-03-02 07:11:00,26.0,19.0,-100.00,North,11,6.0,12.0,74,0.00,,,0.01,0.000000,,2013-03-02 12:11:00,
2013-03-02 07:22:00,26.0,19.0,-100.00,North,11,6.0,12.0,74,0.00,,,0.01,0.000000,,2013-03-02 12:22:00,
2013-03-02 07:33:00,26.0,19.0,-100.00,North,11,6.0,12.0,74,0.00,,,0.01,0.000000,,2013-03-02 12:33:00,
2013-03-02 07:43:00,26.0,19.0,-100.00,North,11,6.0,12.0,74,0.00,,,0.01,0.000000,,2013-03-02 12:43:00,
2013-03-02 08:11:00,26.0,19.0,-100.00,NNE,23,7.0,14.0,73,0.00,,,0.01,3.000000,,2013-03-02 13:11:00,
2013-03-02 08:22:00,26.0,19.0,-100.00,NNE,23,7.0,14.0,73,0.00,,,0.01,3.000000,,2013-03-02 13:22:00,
2013-03-02 08:32:00,26.0,19.0,-100.00,NNE,23,7.0,14.0,73,0.00,,,0.01,3.000000,,2013-03-02 13:32:00,
2013-03-02 08:42:00,26.0,19.0,-100.00,NNE,23,7.0,14.0,73,0.00,,,0.01,3.000000,,2013-03-02 13:42:00,
2013-03-02 09:11:00,26.0,19.0,-100.00,NNE,29,8.0,12.0,74,0.00,,,0.01,16.000000,,2013-03-02 14:11:00,
2013-03-02 09:22:00,26.0,19.0,-100.00,NNE,29,8.0,12.0,74,0.00,,,0.01,16.000000,,2013-03-02 14:22:00,
2013-03-02 09:32:00,26.0,19.0,-100.00,NNE,29,8.0,12.0,74,0.00,,,0.01,16.000000,,2013-03-02 14:32:00,
2013-03-02 09:42:00,26.0,19.0,-100.00,NNE,29,8.0,12.0,74,0.00,,,0.01,16.000000,,2013-03-02 14:42:00,
2013-03-02 10:11:00,26.0,19.0,-100.00,NNE,19,5.0,11.0,75,0.00,,,-99.99,33.000000,,2013-03-02 15:11:00,
2013-03-02 10:22:00,26.0,19.0,-100.00,NNE,19,5.0,11.0,75,0.00,,,-99.99,33.000000,,2013-03-02 15:22:00,
2013-03-02 10:32:00,26.0,19.0,-100.00,NNE,19,5.0,11.0,75,0.00,,,-99.99,33.000000,,2013-03-02 15:32:00,
2013-03-02 10:42:00,26.0,19.0,-100.00,NNE,19,5.0,11.0,75,0.00,,,-99.99,33.000000,,2013-03-02 15:42:00,
2013-03-02 11:11:00,27.0,20.0,-100.00,NNW,334,15.0,28.0,73,0.00,,,0.00,56.000000,,2013-03-02 16:11:00,
2013-03-02 11:22:00,27.0,20.0,-100.00,NNW,334,15.0,28.0,73,0.00,,,0.00,56.000000,,2013-03-02 16:22:00,
2013-03-02 11:32:00,27.0,20.0,-100.00,NNW,334,15.0,28.0,73,0.00,,,0.00,56.000000,,2013-03-02 16:32:00,
2013-03-02 11:42:00,27.0,20.0,-100.00,NNW,334,15.0,28.0,73,0.00,,,0.00,56.000000,,2013-03-02 16:42:00,
2013-03-02 12:12:00,27.0,20.0,-100.00,NNW,328,15.0,31.0,73,0.00,,,0.00,71.000000,,2013-03-02 17:12:00,
2013-03-02 12:22:00,27.0,20.0,-100.00,NNW,328,15.0,31.0,73,0.00,,,0.00,71.000000,,2013-03-02 17:22:00,
2013-03-02 12:32:00,27.0,20.0,-100.00,NNW,328,15.0,31.0,73,0.00,,,0.00,71.000000,,2013-03-02 17:32:00,
2013-03-02 12:42:00,27.0,20.0,-100.00,NNW,328,15.0,31.0,73,0.00,,,0.00,71.000000,,2013-03-02 17:42:00,
2013-03-02 13:12:00,27.0,20.0,-100.00,NNE,12,5.0,32.0,74,0.00,,,0.00,76.000000,,2013-03-02 18:12:00,
2013-03-02 13:22:00,27.0,20.0,-100.00,NNE,12,5.0,32.0,74,0.00,,,0.00,76.000000,,2013-03-02 18:22:00,
2013-03-02 13:32:00,27.0,20.0,-100.00,NNE,12,5.0,32.0,74,0.00,,,0.00,76.000000,,2013-03-02 18:32:00,
2013-03-02 13:42:00,27.0,20.0,-100.00,NNE,12,5.0,32.0,74,0.00,,,0.00,76.000000,,2013-03-02 18:42:00,
2013-03-02 14:12:00,28.0,18.0,-100.00,NNW,333,6.0,12.0,66,0.00,,,0.00,146.000000,,2013-03-02 19:12:00,
2013-03-02 14:22:00,28.0,18.0,-100.00,NNW,333,6.0,12.0,66,0.00,,,0.00,146.000000,,2013-03-02 19:22:00,
2013-03-02 14:32:00,28.0,18.0,-100.00,NNW,333,6.0,12.0,66,0.00,,,0.00,146.000000,,2013-03-02 19:32:00,
2013-03-02 14:42:00,28.0,18.0,-100.00,NNW,333,6.0,12.0,66,0.00,,,0.00,146.000000,,2013-03-02 19:42:00,
2013-03-02 15:11:00,29.0,19.0,-100.00,NNW,341,6.0,11.0,67,0.00,,,0.00,140.000000,,2013-03-02 20:11:00,
2013-03-02 15:22:00,29.0,19.0,-100.00,NNW,341,6.0,11.0,67,0.00,,,0.00,140.000000,,2013-03-02 20:22:00,
2013-03-02 15:32:00,29.0,19.0,-100.00,NNW,341,6.0,11.0,67,0.00,,,0.00,140.000000,,2013-03-02 20:32:00,
2013-03-02 15:42:00,29.0,19.0,-100.00,NNW,341,6.0,11.0,67,0.00,,,0.00,140.000000,,2013-03-02 20:42:00,
2013-03-02 16:12:00,28.0,18.0,-100.00,WNW,302,7.0,15.0,67,0.00,,,0.00,102.000000,,2013-03-02 21:12:00,
2013-03-02 16:22:00,28.0,18.0,-100.00,WNW,302,7.0,15.0,67,0.00,,,0.00,102.000000,,2013-03-02 21:22:00,
2013-03-02 16:32:00,28.0,18.0,-100.00,WNW,302,7.0,15.0,67,0.00,,,0.00,102.000000,,2013-03-02 21:32:00,
2013-03-02 16:42:00,28.0,18.0,-100.00,WNW,302,7.0,15.0,67,0.00,,,0.00,102.000000,,2013-03-02 21:42:00,
2013-03-02 17:12:00,29.0,20.0,-100.00,NW,321,5.0,14.0,68,0.00,,,0.00,79.000000,,2013-03-02 22:12:00,
2013-03-02 17:22:00,29.0,20.0,-100.00,NW,321,5.0,14.0,68,0.00,,,0.00,79.000000,,2013-03-02 22:22:00,
2013-03-02 17:32:00,29.0,20.0,-100.00,NW,321,5.0,14.0,68,0.00,,,0.00,79.000000,,2013-03-02 22:32:00,
2013-03-02 17:42:00,29.0,20.0,-100.00,NW,321,5.0,14.0,68,0.00,,,0.00,79.000000,,2013-03-02 22:42:00,
2013-03-02 18:11:00,28.0,17.0,-100.00,NW,316,8.0,15.0,64,0.00,,,0.00,47.000000,,2013-03-02 23:11:00,
2013-03-02 18:22:00,28.0,17.0,-100.00,NW,316,8.0,15.0,64,0.00,,,0.00,47.000000,,2013-03-02 23:22:00,
2013-03-02 18:32:00,28.0,17.0,-100.00,NW,316,8.0,15.0,64,0.00,,,0.00,47.000000,,2013-03-02 23:32:00,
2013-03-02 18:42:00,28.0,17.0,-100.00,NW,316,8.0,15.0,64,0.00,,,0.00,47.000000,,2013-03-02 23:42:00,
2013-03-02 19:11:00,28.0,17.0,-100.00,NW,326,5.0,11.0,64,0.00,,,0.00,9.000000,,2013-03-03 00:11:00,
2013-03-02 19:22:00,28.0,17.0,-100.00,NW,326,5.0,11.0,64,0.00,,,0.00,9.000000,,2013-03-03 00:22:00,
2013-03-02 19:32:00,28.0,17.0,-100.00,NW,326,5.0,11.0,64,0.00,,,0.00,9.000000,,2013-03-03 00:32:00,
2013-03-02 19:42:00,28.0,17.0,-100.00,NW,326,5.0,11.0,64,0.00,,,0.00,9.000000,,2013-03-03 00:42:00,
2013-03-02 20:11:00,28.0,18.0,-100.00,NW,311,7.0,13.0,66,0.00,,,0.00,0.000000,,2013-03-03 01:11:00,
2013-03-02 20:21:00,28.0,18.0,-100.00,NW,311,7.0,13.0,66,0.00,,,0.00,0.000000,,2013-03-03 01:21:00,
2013-03-02 20:32:00,28.0,18.0,-100.00,NW,311,7.0,13.0,66,0.00,,,0.00,0.000000,,2013-03-03 01:32:00,
2013-03-02 20:42:00,28.0,18.0,-100.00,NW,311,7.0,13.0,66,0.00,,,0.00,0.000000,,2013-03-03 01:42:00,
2013-03-02 21:11:00,27.0,20.0,-100.00,WNW,295,9.0,17.0,75,0.00,,,0.00,0.000000,,2013-03-03 02:11:00,
2013-03-02 21:22:00,27.0,20.0,-100.00,WNW,295,9.0,17.0,75,0.00,,,0.00,0.000000,,2013-03-03 02:22:00,
2013-03-02 21:32:00,27.0,20.0,-100.00,WNW,295,9.0,17.0,75,0.00,,,0.00,0.000000,,2013-03-03 02:32:00,
2013-03-02 21:42:00,27.0,20.0,-100.00,WNW,295,9.0,17.0,75,0.00,,,0.00,0.000000,,2013-03-03 02:42:00,
2013-03-02 22:11:00,27.0,20.0,-100.00,West,266,3.0,12.0,76,0.00,,,0.00,0.000000,,2013-03-03 03:11:00,
2013-03-02 22:22:00,27.0,20.0,-100.00,West,266,3.0,12.0,76,0.00,,,0.00,0.000000,,2013-03-03 03:22:00,
2013-03-02 22:32:00,27.0,20.0,-100.00,West,266,3.0,12.0,76,0.00,,,0.00,0.000000,,2013-03-03 03:32:00,
2013-03-02 22:42:00,27.0,20.0,-100.00,West,266,3.0,12.0,76,0.00,,,0.00,0.000000,,2013-03-03 03:42:00,
2013-03-02 23:11:00,27.0,20.0,-100.00,West,274,5.0,8.0,74,0.00,,,0.00,0.000000,,2013-03-03 04:11:00,
2013-03-02 23:22:00,27.0,20.0,-100.00,West,274,5.0,8.0,74,0.00,,,0.00,0.000000,,2013-03-03 04:22:00,
2013-03-02 23:32:00,27.0,20.0,-100.00,West,274,5.0,8.0,74,0.00,,,0.00,0.000000,,2013-03-03 04:32:00,
2013-03-02 23:42:00,27.0,20.0,-100.00,West,274,5.0,8.0,74,0.00,,,0.00,0.000000,,2013-03-03 04:42:00,